^^
Grace C. Lehan Memorial Weather Station Historical Data
Daily Summary for February 27, 2022 Units:  English    Metric   Both
Daily Weekly Monthly Yearly
  High: Low: Average:
Temperature: 57.4 °F 54.7 °F 56.3 °F
Dew Point: 56 °F 53.6 °F 55.1 °F
Humidity: 96% 94.9% 96%
Wind Speed: 0mph 0mph 0mph
Wind Gust: 0mph - -
Wind- -
Pressure: 29.76 in 29.73 in -
Precipitation: 0.01 in    
 
 
Tabular Data for February 27, 2022
Time Temperature Dew Point Pressure Wind Wind Speed Wind Gust Humidity Rainfall Rate (Hourly) solar
00:04 57.4 °F 55.9 °F 29.75 in Calm     94.9% 0.00 in 0 W/m2
00:09 57.3 °F 55.9 °F 29.75 in Calm     95% 0.00 in 0 W/m2
00:14 57.2 °F 55.8 °F 29.75 in Calm     95% 0.00 in 0 W/m2
00:19 57.2 °F 55.8 °F 29.75 in Calm     95% 0.00 in 0 W/m2
00:24 57.1 °F 55.7 °F 29.75 in Calm     95% 0.01 in 0 W/m2
00:29 57.1 °F 55.7 °F 29.75 in Calm     95% 0.01 in 0 W/m2
00:34 56.9 °F 55.5 °F 29.75 in Calm     95% 0.01 in 0 W/m2
00:39 56.9 °F 55.5 °F 29.75 in Calm     95% 0.01 in 0 W/m2
00:44 57 °F 55.6 °F 29.75 in Calm     95% 0.01 in 0 W/m2
00:49 57.1 °F 55.7 °F 29.75 in Calm     95% 0.01 in 0 W/m2
00:54 57.2 °F 55.8 °F 29.75 in Calm     95.2% 0.01 in 0 W/m2
00:59 57.2 °F 55.8 °F 29.76 in Calm     95% 0.01 in 0 W/m2
01:04 57.2 °F 55.8 °F 29.75 in Calm     95% 0.01 in 0 W/m2
01:09 57.2 °F 55.8 °F 29.75 in Calm     95% 0.00 in 0 W/m2
01:14 57.1 °F 55.7 °F 29.75 in Calm     95% 0.00 in 0 W/m2
01:19 57 °F 55.6 °F 29.75 in Calm     95% 0.00 in 0 W/m2
01:24 56.9 °F 55.5 °F 29.75 in Calm     95% 0.00 in 0 W/m2
01:29 56.9 °F 55.5 °F 29.75 in Calm     95% 0.00 in 0 W/m2
01:34 56.9 °F 55.5 °F 29.75 in Calm     95% 0.00 in 0 W/m2
01:39 56.9 °F 55.5 °F 29.75 in Calm     95% 0.00 in 0 W/m2
01:44 56.9 °F 55.5 °F 29.75 in Calm     95% 0.00 in 0 W/m2
01:49 57 °F 55.8 °F 29.75 in Calm     95.6% 0.00 in 0 W/m2
01:54 57 °F 55.9 °F 29.75 in Calm     96% 0.00 in 0 W/m2
01:59 57.1 °F 55.9 °F 29.75 in Calm     96% 0.00 in 0 W/m2
02:04 57.1 °F 56 °F 29.75 in Calm     96% 0.00 in 0 W/m2
02:09 57.1 °F 56 °F 29.75 in Calm     96% 0.00 in 0 W/m2
02:14 57.1 °F 56 °F 29.74 in Calm     96% 0.00 in 0 W/m2
02:19 57.1 °F 56 °F 29.74 in Calm     96% 0.00 in 0 W/m2
02:24 57.1 °F 56 °F 29.75 in Calm     96% 0.00 in 0 W/m2
02:29 57 °F 55.9 °F 29.74 in Calm     96% 0.00 in 0 W/m2
02:34 57 °F 55.8 °F 29.75 in Calm     96% 0.00 in 0 W/m2
02:39 56.9 °F 55.8 °F 29.75 in Calm     96% 0.00 in 0 W/m2
02:44 56.9 °F 55.8 °F 29.75 in Calm     96% 0.00 in 0 W/m2
02:49 56.9 °F 55.7 °F 29.75 in Calm     96% 0.00 in 0 W/m2
02:54 56.8 °F 55.7 °F 29.75 in Calm     96% 0.00 in 0 W/m2
02:59 56.8 °F 55.7 °F 29.75 in Calm     96% 0.00 in 0 W/m2
03:04 56.8 °F 55.7 °F 29.75 in Calm     96% 0.00 in 0 W/m2
03:09 56.8 °F 55.7 °F 29.75 in Calm     96% 0.00 in 0 W/m2
03:14 56.8 °F 55.7 °F 29.75 in Calm     96% 0.00 in 0 W/m2
03:19 56.9 °F 55.7 °F 29.75 in Calm     96% 0.00 in 0 W/m2
03:24 56.8 °F 55.7 °F 29.74 in Calm     96% 0.00 in 0 W/m2
03:29 56.8 °F 55.7 °F 29.74 in Calm     96% 0.00 in 0 W/m2
03:34 56.8 °F 55.7 °F 29.74 in Calm     96% 0.00 in 0 W/m2
03:39 56.8 °F 55.7 °F 29.74 in Calm     96% 0.00 in 0 W/m2
03:44 56.7 °F 55.6 °F 29.74 in Calm     96% 0.00 in 0 W/m2
03:49 56.7 °F 55.6 °F 29.74 in Calm     96% 0.00 in 0 W/m2
03:54 56.6 °F 55.5 °F 29.74 in Calm     96% 0.00 in 0 W/m2
03:59 56.6 °F 55.4 °F 29.73 in Calm     96% 0.00 in 0 W/m2
04:04 56.4 °F 55.3 °F 29.73 in Calm     96% 0.00 in 0 W/m2
04:09 56.4 °F 55.3 °F 29.73 in Calm     96% 0.00 in 0 W/m2
04:14 56.3 °F 55.2 °F 29.74 in Calm     96% 0.00 in 0 W/m2
04:19 56.2 °F 55.1 °F 29.74 in Calm     96% 0.00 in 0 W/m2
04:24 56.1 °F 55 °F 29.74 in Calm     96% 0.00 in 0 W/m2
04:29 56.1 °F 54.9 °F 29.74 in Calm     96% 0.00 in 0 W/m2
04:34 56 °F 54.9 °F 29.74 in Calm     96% 0.00 in 0 W/m2
04:39 56 °F 54.9 °F 29.74 in Calm     96% 0.00 in 0 W/m2
04:44 55.9 °F 54.8 °F 29.74 in Calm     96% 0.00 in 0 W/m2
04:49 55.9 °F 54.8 °F 29.74 in Calm     96% 0.00 in 0 W/m2
04:54 56 °F 54.9 °F 29.75 in Calm     96% 0.00 in 0 W/m2
04:59 56 °F 54.9 °F 29.75 in Calm     96% 0.00 in 0 W/m2
05:04 56 °F 54.9 °F 29.75 in Calm     96% 0.00 in 0 W/m2
05:09 56 °F 54.8 °F 29.75 in Calm     96% 0.00 in 0 W/m2
05:14 55.9 °F 54.7 °F 29.75 in Calm     96% 0.00 in 0 W/m2
05:19 55.8 °F 54.6 °F 29.75 in Calm     96% 0.00 in 0 W/m2
05:24 55.7 °F 54.6 °F 29.75 in Calm     96% 0.00 in 0 W/m2
05:29 55.7 °F 54.6 °F 29.75 in Calm     96% 0.00 in 0 W/m2
05:34 55.7 °F 54.6 °F 29.75 in Calm     96% 0.00 in 0 W/m2
05:39 55.7 °F 54.6 °F 29.75 in Calm     96% 0.00 in 0 W/m2
05:44 55.6 °F 54.5 °F 29.75 in Calm     96% 0.00 in 0 W/m2
05:49 55.6 °F 54.4 °F 29.75 in Calm     96% 0.00 in 0 W/m2
05:54 55.5 °F 54.4 °F 29.75 in Calm     96% 0.00 in 0 W/m2
05:59 55.4 °F 54.3 °F 29.75 in Calm     96% 0.00 in 0 W/m2
06:04 55.3 °F 54.2 °F 29.75 in Calm     96% 0.00 in 0 W/m2
06:09 55.2 °F 54.1 °F 29.75 in Calm     96% 0.00 in 0 W/m2
06:14 55.1 °F 54 °F 29.75 in Calm     96% 0.00 in 0 W/m2
06:19 55 °F 53.9 °F 29.75 in Calm     96% 0.00 in 0 W/m2
06:24 55 °F 53.8 °F 29.75 in Calm     96% 0.00 in 0 W/m2
06:29 54.9 °F 53.8 °F 29.75 in Calm     96% 0.00 in 0 W/m2
06:34 54.8 °F 53.7 °F 29.75 in Calm     96% 0.00 in 0 W/m2
06:39 54.8 °F 53.7 °F 29.75 in Calm     96% 0.00 in 0 W/m2
06:44 54.7 °F 53.6 °F 29.75 in Calm     96% 0.00 in 0 W/m2
06:49 54.7 °F 53.6 °F 29.75 in Calm     96% 0.00 in 0 W/m2
06:54 54.7 °F 53.6 °F 29.75 in Calm     96% 0.00 in 5 W/m2
06:59 54.8 °F 53.6 °F 29.75 in Calm     96% 0.00 in 7 W/m2
07:04 54.8 °F 53.7 °F 29.75 in Calm     96% 0.00 in 11 W/m2
07:09 54.8 °F 53.7 °F 29.76 in Calm     96% 0.00 in 12 W/m2
07:13 54.8 °F 53.7 °F 29.76 in Calm     96% 0.00 in 14 W/m2
Hartford County Weather
Compliments of Weather Underground - 4 mb